This demonstration page uses our WeatherBlox Daily Observations layout. Learn more.

Left ArrowRight Arrow

Hourly Observations for September 27, 2020

Temp ( °F °C ) Dew Point ( °F °C ) Humidity (%) Winds ( mph kmh ) Pressure ( in mb ) Visibility ( mi km ) Precip ( " mm )
12:59 am 00:59 Cloudy with Drizzle 70 21.1 67 19.4 90 90 W 5 7 29.98 1015 7 11 0.00 0.00
1:12 am 01:12 Cloudy with Drizzle 70 21.1 67 19.4 90 90 W 3 6 29.98 1015 8 13 0.00 0.00
1:49 am 01:49 Cloudy 69 20.6 67 19.4 93 93 W 6 9 29.97 1015 7 11 0.00 0.00
1:59 am 01:59 Cloudy 69 20.6 67 19.4 93 93 W 5 7 29.97 1015 7 11 0.00 0.00
2:59 am 02:59 Cloudy with Mist and Fog 69 20.6 67 19.4 93 93 NW 6 9 29.96 1015 4 6 0.00 0.00
3:06 am 03:06 Cloudy with Mist and Fog 69 20.6 67 19.4 93 93 WNW 6 9 29.96 1015 3 4 0.00 0.00
3:14 am 03:14 Cloudy with Mist and Fog 69 20.6 67 19.4 93 93 WNW 5 7 29.96 1015 3 5 0.00 0.00
3:20 am 03:20 Cloudy with Mist and Fog 69 20.6 67 19.4 93 93 WNW 5 7 29.96 1015 2 3 0.00 0.00
3:59 am 03:59 Cloudy with Mist and Fog 68 20 67 19.4 96 96 Calm 29.95 1014 2 3 0.00 0.00
4:28 am 04:28 Cloudy with Mist and Fog 68 20 66 18.9 93 93 W 5 7 29.95 1014 1 2 0.00 0.00
4:45 am 04:45 Mostly Cloudy with Mist and Fog 68 20 66 18.9 93 93 NW 3 6 29.95 1014 1 1 0.00 0.00
4:59 am 04:59 Cloudy with Mist and Fog 68 20 66 18.9 93 93 NW 5 7 29.95 1014 1 2 0.00 0.00
5:43 am 05:43 Cloudy with Mist and Fog 68 20 66 18.9 93 93 WNW 5 7 29.95 1014 3 5 0.00 0.00
5:59 am 05:59 Cloudy with Mist and Fog 68 20 66 18.9 93 93 WNW 5 7 29.96 1015 6 10 0.00 0.00
6:30 am 06:30 Cloudy 68 20 66 18.9 93 93 WNW 6 9 29.97 1015 8 13 0.00 0.00
6:41 am 06:41 Cloudy 68 20 66 18.9 93 93 WNW 7 11 29.97 1015 8 13 0.00 0.00
6:59 am 06:59 Cloudy 69 20.6 66 18.9 90 90 WNW 6 9 29.97 1015 8 13 0.00 0.00
7:59 am 07:59 Cloudy with Mist and Fog 69 20.6 66 18.9 90 90 W 5 7 29.98 1015 6 10 0.00 0.00
8:59 am 08:59 Cloudy 70 21.1 66 18.9 87 87 WNW 3 6 30.00 1016 8 13 0.00 0.00
9:59 am 09:59 Cloudy 71 21.7 66 18.9 84 84 W 3 6 30.01 1016 9 14 0.00 0.00
10:11 am 10:11 Cloudy 71 21.7 66 18.9 84 84 W 5 7 30.02 1017 9 14 0.00 0.00
10:59 am 10:59 Cloudy 71 21.7 66 18.9 84 84 undefined N/A 30.01 1016 9 14 0.00 0.00
11:59 am 11:59 Cloudy 73 22.8 65 18.3 76 76 W 6 9 30.00 1016 10 16 0.00 0.00
12:59 pm 12:59 Mostly Cloudy 74 23.3 64 17.8 71 71 WSW 3 6 29.98 1015 10 16 0.00 0.00
1:59 pm 13:59 Cloudy 77 25 65 18.3 66 66 VRB 6 9 29.96 1014 10 16 0.00 0.00
2:59 pm 14:59 Cloudy 76 24.4 64 17.8 67 67 SW 6 9 29.93 1014 10 16 0.00 0.00
3:59 pm 15:59 Cloudy 76 24.4 65 18.3 69 69 Calm 29.93 1014 10 16 0.00 0.00
4:59 pm 16:59 Cloudy 76 24.4 65 18.3 69 69 SSW 5 7 29.91 1013 10 16 0.00 0.00
5:30 pm 17:30 Cloudy 75 23.9 65 18.3 71 71 WSW 5 7 29.92 1013 10 16 0.00 0.00
5:59 pm 17:59 Cloudy 75 23.9 64 17.8 69 69 W 7 11 29.91 1013 10 16 0.00 0.00
6:59 pm 18:59 Cloudy 74 23.3 65 18.3 74 74 W 3 6 29.92 1013 10 16 0.00 0.00
7:59 pm 19:59 Cloudy 74 23.3 66 18.9 76 76 WSW 3 6 29.94 1014 10 16 0.00 0.00
8:59 pm 20:59 Mostly Cloudy 72 22.2 66 18.9 82 82 Calm 29.95 1014 10 16 0.00 0.00
9:59 pm 21:59 Cloudy 71 21.7 66 18.9 84 84 Calm 29.96 1015 10 16 0.00 0.00
10:59 pm 22:59 Cloudy 70 21.1 66 18.9 87 87 S 3 6 29.96 1015 10 16 0.00 0.00
11:59 pm 23:59 Mostly Cloudy 68 20 64 17.8 87 87 SSW 3 6 29.96 1015 10 16 0.00 0.00

Powered by AerisWeather